When you browse on this site, cookies collect data to enhance your experience and personalize the content and advertising you see.
Visit our Privacy Policy to learn more. By continuing to use the site, you agree to this use of cookies and data.
  • In United Kingdom
  • List of Countries
  • For 7 days
  • Water Temperature
  • Satellite Maps
  • Weather Map
  • Weather Widgets
  • user-avatar
    Login

    Hourly Weather Abercarn

    Today, 21 March, Thursday

    Time Temperature Precipitation Wind Pressure Humidity
    00:00 +7°C° 0 mm 2 mps 756 mmHg 96%
    01:00 +8°C° 0 mm 2 mps 756 mmHg 96%
    02:00 +8°C° 0 mm 2 mps 756 mmHg 96%
    03:00 +8°C° 0 mm 2 mps 756 mmHg 97%
    04:00 +8°C° 0 mm 2 mps 756 mmHg 97%
    05:00 +8°C° 0 mm 2 mps 756 mmHg 97%
    06:00 +8°C° 0 mm 2 mps 756 mmHg 97%
    07:00 +9°C° 0 mm 2 mps 756 mmHg 95%
    08:00 +10°C° 0 mm 2 mps 756 mmHg 92%
    09:00 +12°C° 0 mm 2 mps 757 mmHg 89%
    10:00 +13°C° 0 mm 2 mps 757 mmHg 86%
    11:00 +13°C° 0 mm 2 mps 757 mmHg 84%
    12:00 +14°C° 0 mm 2 mps 756 mmHg 81%
    13:00 +14°C° 0 mm 2 mps 756 mmHg 81%
    14:00 +14°C° 0 mm 2 mps 756 mmHg 80%
    15:00 +14°C° 0 mm 2 mps 756 mmHg 80%
    16:00 +13°C° 0 mm 2 mps 756 mmHg 83%
    17:00 +12°C° 0 mm 2 mps 755 mmHg 86%
    18:00 +12°C° 0 mm 2 mps 755 mmHg 88%
    19:00 +11°C° 0 mm 1 mps 755 mmHg 89%
    20:00 +10°C° 0 mm 1 mps 755 mmHg 90%
    21:00 +8°C° 0 mm 0 mps 755 mmHg 91%
    22:00 +9°C° 0 mm 1 mps 755 mmHg 92%
    23:00 +9°C° 0 mm 1 mps 754 mmHg 92%

    Tomorrow, 22 March, Friday

    Time Temperature Precipitation Wind Pressure Humidity
    00:00 +8°C° 0 mm 2 mps 754 mmHg 93%
    01:00 +8°C° 0 mm 2 mps 754 mmHg 94%
    02:00 +8°C° 0 mm 3 mps 753 mmHg 95%
    03:00 +7°C° 0 mm 4 mps 753 mmHg 96%
    04:00 +7°C° 0 mm 4 mps 752 mmHg 95%
    05:00 +7°C° 0 mm 4 mps 752 mmHg 95%
    06:00 +6°C° 0 mm 5 mps 752 mmHg 94%
    07:00 +7°C° 0 mm 5 mps 752 mmHg 91%
    08:00 +8°C° 0 mm 5 mps 752 mmHg 88%
    09:00 +8°C° 0 mm 5 mps 752 mmHg 86%
    10:00 +9°C° 0 mm 6 mps 752 mmHg 83%
    11:00 +10°C° 0 mm 6 mps 752 mmHg 81%
    12:00 +11°C° 0 mm 6 mps 752 mmHg 78%
    13:00 +11°C° 0 mm 6 mps 752 mmHg 77%
    14:00 +11°C° 0 mm 6 mps 752 mmHg 76%
    15:00 +11°C° 0 mm 6 mps 751 mmHg 75%
    16:00 +10°C° 0 mm 5 mps 751 mmHg 79%
    17:00 +9°C° 0 mm 5 mps 751 mmHg 83%
    18:00 +8°C° 0 mm 4 mps 752 mmHg 88%
    19:00 +8°C° 0 mm 4 mps 752 mmHg 90%
    20:00 +9°C° 0 mm 3 mps 752 mmHg 93%
    21:00 +8°C° 0 mm 3 mps 753 mmHg 96%
    22:00 +8°C° 0.1 mm 2 mps 753 mmHg 95%
    23:00 +8°C° 0.1 mm 2 mps 753 mmHg 95%

    Day after tomorrow, 23 March, Saturday

    Time Temperature Precipitation Wind Pressure Humidity
    00:00 +8°C° 0.1 mm 2 mps 753 mmHg 94%
    01:00 +7°C° 0 mm 2 mps 753 mmHg 92%
    02:00 +7°C° 0 mm 3 mps 754 mmHg 90%
    03:00 +5°C° 0 mm 4 mps 754 mmHg 88%
    04:00 +4°C° 0 mm 4 mps 754 mmHg 87%
    05:00 +4°C° 0 mm 4 mps 754 mmHg 85%
    06:00 +3°C° 0 mm 4 mps 755 mmHg 84%
    07:00 +3°C° 0 mm 5 mps 755 mmHg 80%
    08:00 +5°C° 0 mm 5 mps 755 mmHg 77%
    09:00 +6°C° 0 mm 5 mps 756 mmHg 73%
    10:00 +7°C° 0 mm 5 mps 756 mmHg 71%
    11:00 +8°C° 0 mm 5 mps 756 mmHg 68%
    12:00 +9°C° 0 mm 5 mps 756 mmHg 66%
    13:00 +10°C° 0 mm 4 mps 755 mmHg 66%
    14:00 +10°C° 0 mm 4 mps 755 mmHg 67%
    15:00 +11°C° 0 mm 4 mps 755 mmHg 68%
    16:00 +10°C° 0.1 mm 4 mps 755 mmHg 73%
    17:00 +9°C° 0.1 mm 3 mps 755 mmHg 78%
    18:00 +8°C° 0.1 mm 3 mps 755 mmHg 83%
    19:00 +8°C° 0.4 mm 3 mps 755 mmHg 86%
    20:00 +7°C° 0.4 mm 3 mps 755 mmHg 90%
    21:00 +7°C° 0.4 mm 2 mps 755 mmHg 93%
    22:00 +6°C° 0.7 mm 2 mps 755 mmHg 93%
    23:00 +5°C° 0.7 mm 3 mps 755 mmHg 93%

    24 March, Sunday

    Time Temperature Precipitation Wind Pressure Humidity
    00:00 +5°C° 0.7 mm 3 mps 755 mmHg 93%
    01:00 +5°C° 0.5 mm 3 mps 754 mmHg 93%
    02:00 +5°C° 0.5 mm 3 mps 754 mmHg 93%
    03:00 +4°C° 0.5 mm 3 mps 754 mmHg 93%
    04:00 +4°C° 0.4 mm 3 mps 754 mmHg 93%
    05:00 +5°C° 0.4 mm 2 mps 754 mmHg 93%
    06:00 +5°C° 0.4 mm 2 mps 754 mmHg 94%
    07:00 +5°C° 0 mm 2 mps 754 mmHg 91%
    08:00 +6°C° 0 mm 2 mps 755 mmHg 88%
    09:00 +6°C° 0 mm 2 mps 755 mmHg 85%
    10:00 +7°C° 0 mm 2 mps 755 mmHg 82%
    11:00 +8°C° 0 mm 2 mps 756 mmHg 79%
    12:00 +9°C° 0 mm 2 mps 756 mmHg 76%
    13:00 +9°C° 0 mm 2 mps 756 mmHg 76%
    14:00 +9°C° 0 mm 2 mps 756 mmHg 75%
    15:00 +9°C° 0 mm 3 mps 755 mmHg 75%
    16:00 +8°C° 0 mm 3 mps 756 mmHg 75%
    17:00 +8°C° 0 mm 3 mps 756 mmHg 75%
    18:00 +7°C° 0 mm 3 mps 756 mmHg 74%
    19:00 +5°C° 0 mm 3 mps 756 mmHg 76%
    20:00 +4°C° 0 mm 3 mps 757 mmHg 78%
    21:00 +2°C° 0 mm 3 mps 757 mmHg 81%
    22:00 +2°C° 0 mm 3 mps 757 mmHg 82%
    23:00 +3°C° 0 mm 2 mps 757 mmHg 83%

    25 March, Monday

    Time Temperature Precipitation Wind Pressure Humidity
    00:00 +3°C° 0 mm 2 mps 757 mmHg 85%
    01:00 +3°C° 0 mm 2 mps 757 mmHg 87%
    02:00 +3°C° 0 mm 2 mps 757 mmHg 88%
    03:00 +3°C° 0 mm 2 mps 757 mmHg 90%
    04:00 +3°C° 0 mm 2 mps 757 mmHg 91%
    05:00 +2°C° 0 mm 2 mps 757 mmHg 91%
    06:00 +2°C° 0 mm 2 mps 757 mmHg 92%
    07:00 +4°C° 0 mm 2 mps 758 mmHg 87%
    08:00 +5°C° 0 mm 3 mps 758 mmHg 82%
    09:00 +7°C° 0 mm 3 mps 758 mmHg 77%
    10:00 +8°C° 0 mm 3 mps 758 mmHg 72%
    11:00 +9°C° 0 mm 3 mps 759 mmHg 68%
    12:00 +10°C° 0 mm 3 mps 759 mmHg 64%
    13:00 +10°C° 0 mm 3 mps 759 mmHg 65%
    14:00 +10°C° 0 mm 3 mps 758 mmHg 65%
    15:00 +11°C° 0 mm 3 mps 758 mmHg 65%
    16:00 +10°C° 0 mm 3 mps 758 mmHg 70%
    17:00 +9°C° 0 mm 3 mps 758 mmHg 75%
    18:00 +8°C° 0 mm 2 mps 758 mmHg 79%
    19:00 +7°C° 0 mm 2 mps 758 mmHg 82%
    20:00 +6°C° 0 mm 2 mps 758 mmHg 84%
    21:00 +5°C° 0 mm 2 mps 759 mmHg 87%
    22:00 +4°C° 0 mm 2 mps 759 mmHg 87%
    23:00 +4°C° 0 mm 2 mps 759 mmHg 88%

    26 March, Tuesday

    Time Temperature Precipitation Wind Pressure Humidity
    00:00 +3°C° 0 mm 2 mps 759 mmHg 88%
    01:00 +3°C° 0 mm 2 mps 759 mmHg 88%
    02:00 +3°C° 0 mm 2 mps 759 mmHg 88%
    03:00 +3°C° 0 mm 2 mps 759 mmHg 87%
    04:00 +2°C° 0 mm 2 mps 759 mmHg 87%
    05:00 +2°C° 0 mm 2 mps 759 mmHg 87%
    06:00 +3°C° 0 mm 1 mps 759 mmHg 87%
    07:00 +5°C° 0 mm 1 mps 759 mmHg 82%
    08:00 +7°C° 0 mm 1 mps 760 mmHg 77%
    09:00 +8°C° 0 mm 1 mps 760 mmHg 71%
    10:00 +10°C° 0 mm 1 mps 760 mmHg 68%
    11:00 +10°C° 0 mm 0 mps 760 mmHg 65%
    12:00 +11°C° 0 mm 0 mps 760 mmHg 61%
    13:00 +13°C° 0 mm 1 mps 760 mmHg 60%
    14:00 +13°C° 0 mm 1 mps 759 mmHg 59%
    15:00 +13°C° 0 mm 1 mps 759 mmHg 58%
    16:00 +12°C° 0 mm 2 mps 759 mmHg 64%
    17:00 +10°C° 0 mm 2 mps 759 mmHg 70%
    18:00 +9°C° 0 mm 2 mps 759 mmHg 76%
    19:00 +8°C° 0 mm 2 mps 759 mmHg 80%
    20:00 +7°C° 0 mm 2 mps 759 mmHg 84%
    21:00 +6°C° 0 mm 2 mps 760 mmHg 88%
    22:00 +5°C° 0 mm 2 mps 760 mmHg 86%
    23:00 +5°C° 0 mm 2 mps 760 mmHg 85%
    Show more